SUNNYSIDE Weather Reports


Display with metric or nautical units.
time (UTC)temp
F
wind
direction
speed
MPH
gust
MPH
rain 1hr
in
rain 24hr
in
rain mn
in
humidity
%
barometer
mb
20260504015530 60 360 10.0 16.0 0.00 0.00 0.00 30 964.1
20260504015033 61 306 9.0 18.0 0.00 0.00 0.00 30 964.0
20260504014530 61 360 12.0 23.0 0.00 0.00 0.00 28 964.1
20260504014032 61 302 13.0 20.0 0.00 0.00 0.00 28 964.0
20260504013531 61 306 11.0 20.0 0.00 0.00 0.00 29 964.0
20260504013037 61 288 10.0 18.0 0.00 0.00 0.00 29 964.0
20260504012531 61 296 10.0 18.0 0.00 0.00 0.00 28 963.9
20260504012030 62 360 11.0 18.0 0.00 0.00 0.00 27 963.7
20260504011530 62 360 10.0 16.0 0.00 0.00 0.00 27 963.7
20260504011032 63 360 10.0 19.0 0.00 0.00 0.00 26 963.7
20260504010530 63 360 13.0 20.0 0.00 0.00 0.00 25 963.7
20260504010029 64 360 11.0 20.0 0.00 0.00 0.00 26 963.7
20260504005528 64 360 7.0 14.0 0.00 0.00 0.00 28 963.7
20260504005028 65 302 7.0 22.0 0.00 0.00 0.00 26 963.6
20260504004528 65 282 12.0 22.0 0.00 0.00 0.00 24 963.5
20260504004027 66 276 10.0 17.0 0.00 0.00 0.00 25 963.6
20260504003527 66 360 10.0 17.0 0.00 0.00 0.00 25 963.7
20260504003038 66 254 11.0 16.0 0.00 0.00 0.00 25 963.7
20260504002529 66 273 10.0 16.0 0.00 0.00 0.00 25 963.8
20260504002025 67 360 9.0 14.0 0.00 0.00 0.00 25 963.9
20260504001525 67 292 9.0 18.0 0.00 0.00 0.00 25 964.0
20260504001028 67 292 9.0 18.0 0.00 0.00 0.00 25 964.0
20260504000523 67 360 11.0 18.0 0.00 0.00 0.00 27 964.1
20260504000023 68 236 9.0 17.0 0.00 0.00 0.00 31 964.1
20260503235522 68 360 10.0 20.0 0.00 0.00 0.00 31 964.0
20260503235022 68 275 14.0 20.0 0.00 0.00 0.00 31 964.1
20260503234522 68 245 13.0 20.0 0.00 0.00 0.00 31 964.1
20260503234022 68 273 10.0 21.0 0.00 0.00 0.00 32 964.2
20260503233523 68 249 14.0 26.0 0.00 0.00 0.00 33 964.3
20260503233024 68 245 16.0 26.0 0.00 0.00 0.00 32 964.3
20260503232523 68 236 14.0 25.0 0.00 0.00 0.00 32 964.5
20260503232019 68 229 16.0 24.0 0.00 0.00 0.00 32 964.4
20260503231519 68 236 15.0 28.0 0.00 0.00 0.00 32 964.6
20260503231022 68 360 18.0 28.0 0.00 0.00 0.00 32 964.7
20260503230519 69 220 18.0 31.0 0.00 0.00 0.00 32 964.5
20260503230017 69 360 24.0 32.0 0.00 0.00 0.00 32 964.6
20260503225517 68 238 20.0 32.0 0.00 0.00 0.00 33 964.7
20260503225021 67 236 18.0 33.0 0.00 0.00 0.00 34 964.7
20260503224526 68 242 25.0 33.0 0.00 0.00 0.00 33 964.8
20260503224016 67 248 25.0 33.0 0.00 0.00 0.00 34 964.8
20260503223517 67 244 21.0 32.0 0.00 0.00 0.00 35 964.9
20260503223016 67 230 22.0 36.0 0.00 0.00 0.00 34 964.9
20260503222514 67 227 24.0 36.0 0.00 0.00 0.00 34 965.1
20260503222014 67 237 21.0 37.0 0.00 0.00 0.00 34 965.1
20260503221515 67 254 22.0 36.0 0.00 0.00 0.00 33 965.1
20260503221013 67 253 23.0 32.0 0.00 0.00 0.00 33 965.1
20260503220514 66 261 22.0 31.0 0.00 0.00 0.00 32 964.9
20260503220020 66 233 22.0 32.0 0.00 0.00 0.00 33 965.0
20260503215511 66 360 23.0 34.0 0.00 0.00 0.00 33 965.3
20260503215010 66 245 22.0 37.0 0.00 0.00 0.00 32 965.5
20260503214511 67 238 23.0 38.0 0.00 0.00 0.00 30 965.6
20260503214010 68 243 19.0 34.0 0.00 0.00 0.00 29 965.8
20260503213509 67 360 17.0 35.0 0.00 0.00 0.00 28 965.6
20260503213011 68 271 17.0 35.0 0.00 0.00 0.00 27 965.7
20260503212515 69 269 21.0 34.0 0.00 0.00 0.00 23 966.0
20260503212008 70 257 16.0 32.0 0.00 0.00 0.00 22 966.0
20260503211508 71 261 15.0 25.0 0.00 0.00 0.00 19 966.0
20260503211008 71 242 14.0 25.0 0.00 0.00 0.00 19 965.7
20260503210508 71 223 17.0 23.0 0.00 0.00 0.00 20 965.5
20260503210008 72 241 16.0 31.0 0.00 0.00 0.00 18 965.7
20260503205506 72 222 18.0 26.0 0.00 0.00 0.00 19 965.7
20260503205006 72 237 19.0 26.0 0.00 0.00 0.00 19 966.0
20260503204505 71 246 18.0 24.0 0.00 0.00 0.00 18 966.0
20260503204003 70 221 14.0 21.0 0.00 0.00 0.00 19 966.2
20260503203503 70 228 15.0 24.0 0.00 0.00 0.00 21 966.4
20260503203002 70 236 14.0 24.0 0.00 0.00 0.00 21 966.4
20260503202502 70 246 13.0 21.0 0.00 0.00 0.00 19 966.5
20260503202002 70 248 12.0 26.0 0.00 0.00 0.00 20 966.5
20260503201602 70 247 14.0 26.0 0.00 0.00 0.00 20 966.5
20260503201103 70 251 18.0 25.0 0.00 0.00 0.00 19 966.7
20260503200559 70 233 11.0 21.0 0.00 0.00 0.00 18 966.7
20260503200058 70 222 13.0 28.0 0.00 0.00 0.00 19 966.9
20260503195557 70 238 21.0 28.0 0.00 0.00 0.00 19 967.3
20260503195056 70 238 16.0 24.0 0.00 0.00 0.00 19 967.5
20260503194601 70 220 14.0 24.0 0.00 0.00 0.00 20 967.6
20260503194054 71 360 15.0 30.0 0.00 0.00 0.00 19 967.8
20260503193554 71 234 17.0 30.0 0.00 0.00 0.00 20 968.1
20260503193053 71 233 18.0 25.0 0.00 0.00 0.00 19 968.3
20260503192552 71 242 13.0 25.0 0.00 0.00 0.00 20 968.4
20260503192051 70 231 18.0 29.0 0.00 0.00 0.00 20 968.6
20260503191550 70 236 18.0 29.0 0.00 0.00 0.00 21 968.8
20260503191049 70 246 16.0 27.0 0.00 0.00 0.00 20 968.9
20260503190547 70 238 15.0 26.0 0.00 0.00 0.00 19 969.0
20260503190047 70 360 16.0 27.0 0.00 0.00 0.00 21 969.3
20260503185545 70 217 19.0 28.0 0.00 0.00 0.00 22 969.6
20260503185047 69 255 17.0 25.0 0.00 0.00 0.00 21 969.7
20260503184601 69 249 14.0 25.0 0.00 0.00 0.00 23 970.0
20260503184043 68 230 13.0 22.0 0.00 0.00 0.00 23 970.2
20260503183542 68 244 12.0 24.0 0.00 0.00 0.00 23 970.3
20260503183048 68 215 16.0 23.0 0.00 0.00 0.00 23 970.4
20260503182541 68 245 13.0 22.0 0.00 0.00 0.00 24 970.5
20260503182040 69 203 12.0 26.0 0.00 0.00 0.00 24 970.7
20260503181540 68 237 13.0 26.0 0.00 0.00 0.00 23 970.8
20260503181038 69 250 20.0 26.0 0.00 0.00 0.00 23 971.1
20260503180536 68 225 15.0 23.0 0.00 0.00 0.00 25 971.2
20260503180037 68 257 13.0 25.0 0.00 0.00 0.00 23 971.4
20260503175534 68 215 17.0 24.0 0.00 0.00 0.00 25 971.5
20260503175037 68 240 13.0 23.0 0.00 0.00 0.00 26 971.5
20260503174534 67 276 15.0 23.0 0.00 0.00 0.00 25 971.7
20260503174034 67 232 11.0 22.0 0.00 0.00 0.00 24 971.8
20260503173534 67 233 13.0 23.0 0.00 0.00 0.00 25 972.1
20260503173035 68 230 13.0 23.0 0.00 0.00 0.00 26 972.3
20260503172532 68 229 14.0 23.0 0.00 0.00 0.00 26 972.2
20260503172029 67 243 8.0 20.0 0.00 0.00 0.00 27 972.3
20260503171531 67 221 13.0 20.0 0.00 0.00 0.00 25 972.5
20260503171026 67 213 10.0 17.0 0.00 0.00 0.00 25 972.7
20260503170525 66 222 11.0 20.0 0.00 0.00 0.00 28 972.8
20260503150552 57 268 10.0 16.0 0.00 0.00 0.00 38 976.3
20260503131025 46 360 6.0 11.0 0.00 0.00 0.00 48 978.3
20260503130522 46 232 5.0 10.0 0.00 0.00 0.00 49 978.2
20260503110503 35 229 4.0 6.0 0.00 0.00 0.00 55 979.1
20260503081544 37 228 4.0 7.0 0.00 0.00 0.00 51 980.1
20260503081043 37 234 4.0 7.0 0.00 0.00 0.00 52 980.2
20260503080544 37 232 3.0 5.0 0.00 0.00 0.00 52 980.1
20260503072540 39 264 2.0 5.0 0.00 0.00 0.00 47 980.3
20260503072042 39 360 3.0 5.0 0.00 0.00 0.00 47 980.3
20260503071557 39 265 3.0 5.0 0.00 0.00 0.00 48 980.3
20260503071038 39 360 3.0 5.0 0.00 0.00 0.00 49 980.4
20260503070537 38 360 3.0 5.0 0.00 0.00 0.00 50 980.4
20260503055030 40 269 4.0 7.0 0.00 0.00 0.00 48 980.7
20260503054529 40 281 2.0 5.0 0.00 0.00 0.00 48 980.7
20260503054028 40 273 3.0 5.0 0.00 0.00 0.00 48 980.6
20260503053528 40 285 2.0 4.0 0.00 0.00 0.00 48 980.6
20260503053034 40 276 2.0 4.0 0.00 0.00 0.00 47 980.6
20260503052526 40 282 2.0 5.0 0.00 0.00 0.00 47 980.6
20260503052028 41 285 3.0 6.0 0.00 0.00 0.00 46 980.6
20260503051529 41 299 3.0 7.0 0.00 0.00 0.00 46 980.7
20260503051025 41 284 3.0 9.0 0.00 0.00 0.00 46 980.6
20260503050523 40 286 6.0 9.0 0.00 0.00 0.00 47 980.7
20260503050022 40 281 5.0 8.0 0.00 0.00 0.00 47 980.6
20260503045522 40 277 3.0 8.0 0.00 0.00 0.00 48 980.6
20260503045022 41 280 4.0 8.0 0.00 0.00 0.00 47 980.6
20260503044541 41 303 4.0 6.0 0.00 0.00 0.00 47 980.6
20260503044023 41 292 4.0 7.0 0.00 0.00 0.00 47 980.6
20260503043521 41 286 4.0 9.0 0.00 0.00 0.00 47 980.6
20260503043038 41 306 4.0 9.0 0.00 0.00 0.00 46 980.5
20260503042521 42 289 3.0 8.0 0.00 0.00 0.00 46 980.5
20260503042021 42 296 4.0 8.0 0.00 0.00 0.00 46 980.6
20260503041521 43 360 2.0 4.0 0.00 0.00 0.00 44 980.5
20260503041021 43 327 2.0 8.0 0.00 0.00 0.00 44 980.5
20260503040523 43 360 4.0 8.0 0.00 0.00 0.00 43 980.6
20260503040020 44 360 3.0 6.0 0.00 0.00 0.00 43 980.7
20260503035519 44 331 2.0 8.0 0.00 0.00 0.00 42 980.7
20260503035019 45 360 4.0 11.0 0.00 0.00 0.00 41 980.6
20260503034520 45 339 5.0 11.0 0.00 0.00 0.00 41 980.7
20260503034020 45 306 4.0 9.0 0.00 0.00 0.00 40 980.7
20260503033522 46 360 4.0 9.0 0.00 0.00 0.00 40 980.8
20260503033021 46 331 5.0 9.0 0.00 0.00 0.00 39 980.8
20260503032520 46 360 5.0 9.0 0.00 0.00 0.00 39 980.7
20260503032023 46 344 5.0 10.0 0.00 0.00 0.00 39 980.7
20260503031526 47 360 6.0 10.0 0.00 0.00 0.00 39 980.7
20260503031019 47 360 5.0 11.0 0.00 0.00 0.00 39 980.6
20260503030518 47 360 7.0 12.0 0.00 0.00 0.00 39 980.5
20260503030019 47 308 8.0 13.0 0.00 0.00 0.00 38 980.5
20260503025517 48 360 8.0 13.0 0.00 0.00 0.00 38 980.5
20260503025017 48 304 7.0 12.0 0.00 0.00 0.00 38 980.4
20260503024518 48 360 8.0 15.0 0.00 0.00 0.00 37 980.5
20260503024018 48 360 10.0 15.0 0.00 0.00 0.00 37 980.4
20260503023517 49 360 10.0 16.0 0.00 0.00 0.00 38 980.3
20260503023017 49 340 11.0 16.0 0.00 0.00 0.00 37 980.2
20260503022518 49 360 9.0 17.0 0.00 0.00 0.00 38 980.2
20260503022020 49 360 10.0 17.0 0.00 0.00 0.00 37 980.2
20260503021517 50 360 9.0 16.0 0.00 0.00 0.00 35 980.2
20260503021018 50 308 10.0 16.0 0.00 0.00 0.00 34 980.1
20260503020516 51 360 10.0 15.0 0.00 0.00 0.00 33 980.0
20260503020017 51 332 10.0 17.0 0.00 0.00 0.00 31 979.9